Weather History for KFET - October, 2013

Change the Weather History Date:

Friday, October 4, 2013

  Actual Average (KOMA) Record (KOMA)
Temperature  
Mean Temperature 66 °F 58 °F  
Max Temperature 82 °F 70 °F 92 °F (2005)
Min Temperature 50 °F 46 °F 28 °F (1935)
Degree Days  
Heating Degree Days 0 8  
Month to date heating degree days 31  
Since 1 July heating degree days 134  
Cooling Degree Days 2 1  
Month to date cooling degree days 4  
Year to date cooling degree days 1101  
Growing Degree Days 16 (Base 50)    
Moisture  
Dew Point 61 °F    
Average Humidity 82    
Maximum Humidity 100    
Minimum Humidity 52    
Precipitation  
Precipitation 1.09 in 0.08 in 1.12 in (1954)
Month to date precipitation 0.33  
Year to date precipitation 26.12  
Snow  
Snow 0.00 in 0.00 in - ()
Month to date snowfall 0.0  
Since 1 July snowfall 0.0  
Snow Depth -    
Sea Level Pressure  
Sea Level Pressure 29.75 in    
Wind  
Wind Speed 12 mph (ESE)    
Max Wind Speed 23 mph    
Max Gust Speed 37 mph    
Visibility 10 miles    
Events Rain , Thunderstorm    
T = Trace of Precipitation, MM = Missing Value Source: NWS Daily Summary

Daily Weather History Graph

Daily Weather History Graph

Search for Another Location

Airport or City:

Trip Planner

Search our weather history database for the weather conditions in past years. The results will help you decide how hot, cold, wet, or windy it might be!

Date:

Astronomy

Oct. 04, 2013 Rise Set
Actual Time 7:26 AM CDT 7:02 PM CDT
Civil Twilight 6:58 AM CDT 7:29 PM CDT
Nautical Twilight 6:26 AM CDT 8:01 PM CDT
Astronomical Twilight 5:54 AM CDT 8:34 PM CDT
Moon 7:03 AM CDT (10/4) 6:45 PM CDT (10/4)
Length of Visible Light 12h 31m
Length of Day
11h 36m
Waning Crescent, 0% of the Moon is Illuminated
Oct 4
Waning Crescent
Oct 4
New
Oct 11
First Quarter
Oct 18
Full
Oct 26
Last Quarter

Hourly Weather History & Observations

Time (CDT) Temp. Heat Index Dew Point Humidity Pressure Visibility Wind Dir Wind Speed Gust Speed Precip Events Conditions
12:15 AM 65.1 °F - 64.4 °F 98% 29.76 in 7.0 mi NNW 4.6 mph - 0.03 in Rain , Thunderstorm Rain
12:35 AM 65.5 °F - 63.9 °F 94% 29.78 in 10.0 mi North 9.2 mph - 0.03 in Rain Light Rain
12:55 AM 65.3 °F - 63.5 °F 94% 29.78 in 10.0 mi North 11.5 mph 18.4 mph 0.03 in Thunderstorm Scattered Clouds
1:15 AM 63.7 °F - 63.0 °F 97% 29.82 in 10.0 mi NW 11.5 mph - 0.01 in   Scattered Clouds
1:35 AM 63.7 °F - 63.0 °F 97% 29.81 in 10.0 mi NE 9.2 mph - 0.01 in Rain , Thunderstorm Thunderstorms and Rain
1:55 AM 63.5 °F - 63.1 °F 99% 29.81 in 4.0 mi NE 6.9 mph - 0.11 in Rain , Thunderstorm Heavy Thunderstorms and Rain
2:15 AM 63.7 °F - 63.7 °F 100% 29.78 in 4.0 mi ENE 15.0 mph - 0.08 in Rain , Thunderstorm Thunderstorms and Rain
2:35 AM 64.9 °F - 64.2 °F 98% 29.79 in 10.0 mi ENE 15.0 mph - 0.10 in Rain , Thunderstorm Light Thunderstorms and Rain
2:55 AM 64.8 °F - 64.4 °F 99% 29.82 in 7.0 mi ENE 5.8 mph 16.1 mph 0.14 in Rain , Thunderstorm Heavy Thunderstorms and Rain
3:15 AM 64.6 °F - 64.4 °F 99% 29.81 in 2.0 mi ENE 13.8 mph 18.4 mph 0.34 in Rain , Thunderstorm Heavy Thunderstorms and Rain
3:35 AM 63.5 °F - 62.6 °F 97% 29.78 in 7.0 mi East 17.3 mph - 0.51 in Rain , Thunderstorm Thunderstorms and Rain
3:55 AM 63.1 °F - 62.6 °F 98% 29.76 in 10.0 mi East 10.4 mph 21.9 mph 0.54 in Rain , Thunderstorm Light Thunderstorms and Rain
4:15 AM 63.3 °F - 62.4 °F 97% 29.81 in 4.0 mi NE 9.2 mph - 0.16 in Rain , Thunderstorm Heavy Thunderstorms and Rain
4:35 AM 62.8 °F - 62.6 °F 99% 29.78 in 10.0 mi East 10.4 mph - 0.25 in Rain Light Rain
4:55 AM 63.5 °F - 62.6 °F 97% 29.79 in 10.0 mi East 11.5 mph 16.1 mph 0.26 in Rain Light Rain
5:15 AM 63.1 °F - 62.2 °F 97% 29.79 in 10.0 mi East 9.2 mph - N/A Rain Light Rain
5:35 AM 63.5 °F - 62.4 °F 96% 29.79 in 10.0 mi East 8.1 mph - N/A   Overcast
5:55 AM 63.5 °F - 62.6 °F 97% 29.78 in 10.0 mi East 9.2 mph - N/A   Overcast
6:15 AM 63.7 °F - 62.6 °F 96% 29.79 in 10.0 mi East 10.4 mph - N/A   Overcast
6:35 AM 63.5 °F - 62.6 °F 97% 29.79 in 10.0 mi East 9.2 mph 17.3 mph N/A   Mostly Cloudy
6:55 AM 63.5 °F - 62.6 °F 97% 29.78 in 10.0 mi East 12.7 mph 17.3 mph N/A   Overcast
7:35 AM 63.1 °F - 62.2 °F 97% 29.78 in 10.0 mi ESE 11.5 mph 19.6 mph N/A   Scattered Clouds
7:55 AM 63.5 °F - 61.9 °F 94% 29.78 in 10.0 mi East 10.4 mph 20.7 mph N/A   Mostly Cloudy
8:15 AM 63.5 °F - 61.7 °F 94% 29.77 in 10.0 mi East 12.7 mph 21.9 mph N/A   Overcast
8:35 AM 63.5 °F - 61.7 °F 94% 29.77 in 10.0 mi East 12.7 mph 17.3 mph N/A Rain Light Rain
8:55 AM 63.5 °F - 62.1 °F 95% 29.77 in 10.0 mi East 11.5 mph 18.4 mph N/A   Overcast
9:15 AM 63.7 °F - 62.2 °F 95% 29.77 in 10.0 mi East 12.7 mph 19.6 mph 0.01 in Rain Light Rain
9:35 AM 64.4 °F - 62.4 °F 93% 29.77 in 10.0 mi ESE 11.5 mph 17.3 mph 0.01 in   Overcast
9:55 AM 64.6 °F - 63.1 °F 95% 29.76 in 7.0 mi East 11.5 mph - 0.01 in   Light Drizzle
10:15 AM 65.7 °F - 63.0 °F 91% 29.75 in 10.0 mi East 16.1 mph 21.9 mph N/A   Scattered Clouds
10:35 AM 67.1 °F - 63.5 °F 88% 29.74 in 10.0 mi East 10.4 mph - N/A   Scattered Clouds
10:55 AM 67.5 °F - 63.1 °F 86% 29.75 in 10.0 mi ESE 13.8 mph 21.9 mph N/A   Mostly Cloudy
11:15 AM 69.6 °F - 64.6 °F 84% 29.74 in 10.0 mi ESE 15.0 mph 20.7 mph N/A   Mostly Cloudy
11:35 AM 69.8 °F - 64.6 °F 83% 29.74 in 10.0 mi ESE 19.6 mph 23.0 mph N/A   Mostly Cloudy
11:55 AM 70.5 °F - 65.3 °F 83% 29.74 in 10.0 mi ESE 11.5 mph 24.2 mph N/A   Overcast
12:15 PM 72.3 °F - 66.2 °F 81% 29.73 in 10.0 mi ESE 12.7 mph 25.3 mph N/A   Overcast
12:35 PM 72.5 °F - 66.6 °F 82% 29.73 in 10.0 mi ESE 19.6 mph 25.3 mph N/A   Overcast
12:55 PM 72.1 °F - 66.9 °F 84% 29.72 in 10.0 mi ESE 18.4 mph 23.0 mph N/A   Overcast
1:15 PM 73.2 °F - 67.5 °F 82% 29.71 in 10.0 mi ESE 12.7 mph 21.9 mph N/A   Overcast
1:35 PM 74.7 °F - 68.5 °F 81% 29.70 in 10.0 mi ESE 17.3 mph 24.2 mph N/A   Overcast
1:55 PM 74.3 °F - 68.4 °F 82% 29.70 in 10.0 mi SE 16.1 mph - N/A   Overcast
2:15 PM 76.3 °F - 69.4 °F 79% 29.68 in 10.0 mi SE 17.3 mph 20.7 mph N/A   Mostly Cloudy
2:35 PM 78.6 °F - 70.0 °F 75% 29.67 in 10.0 mi SE 20.7 mph 24.2 mph N/A   Mostly Cloudy
2:55 PM 78.3 °F - 70.0 °F 76% 29.67 in 10.0 mi SE 17.3 mph 24.2 mph N/A   Scattered Clouds
3:15 PM 78.4 °F - 70.3 °F 76% 29.66 in 10.0 mi SE 13.8 mph 23.0 mph N/A   Scattered Clouds
3:35 PM 79.9 °F - 70.5 °F 73% 29.65 in 10.0 mi ESE 19.6 mph 24.2 mph N/A   Scattered Clouds
3:55 PM 79.7 °F - 70.9 °F 74% 29.65 in 10.0 mi SE 11.5 mph 25.3 mph N/A   Scattered Clouds
4:15 PM 78.8 °F - 70.9 °F 77% 29.64 in 10.0 mi ESE 10.4 mph - N/A   Scattered Clouds
4:35 PM 79.9 °F - 71.6 °F 76% 29.62 in 10.0 mi ESE 13.8 mph 20.7 mph N/A   Scattered Clouds
4:55 PM 82.0 °F 86.3 °F 71.1 °F 69% 29.62 in 10.0 mi SE 13.8 mph 26.5 mph N/A   Clear
5:15 PM 82.2 °F 86.9 °F 71.6 °F 70% 29.62 in 10.0 mi ESE 15.0 mph 23.0 mph N/A   Scattered Clouds
5:35 PM 80.6 °F 84.6 °F 71.6 °F 74% 29.61 in 10.0 mi ESE 12.7 mph 18.4 mph N/A   Scattered Clouds
5:55 PM 81.0 °F 85.1 °F 71.6 °F 73% 29.64 in 10.0 mi SSW 11.5 mph 21.9 mph N/A   Mostly Cloudy
6:15 PM 80.8 °F 81.8 °F 61.5 °F 52% 29.65 in 10.0 mi SW 15.0 mph 24.2 mph N/A   Scattered Clouds
6:35 PM 77.5 °F - 58.8 °F 52% 29.67 in 10.0 mi SW 20.7 mph 26.5 mph N/A   Clear
6:55 PM 75.4 °F - 58.8 °F 56% 29.69 in 10.0 mi SW 17.3 mph 24.2 mph N/A   Clear
7:15 PM 73.4 °F - 58.3 °F 59% 29.71 in 10.0 mi SW 17.3 mph 29.9 mph N/A   Clear
7:35 PM 71.2 °F - 57.4 °F 61% 29.73 in 10.0 mi WSW 18.4 mph 27.6 mph N/A   Clear
7:55 PM 69.1 °F - 56.3 °F 64% 29.74 in 10.0 mi WSW 20.7 mph 31.1 mph N/A   Clear
8:15 PM 66.9 °F - 52.7 °F 60% 29.76 in 10.0 mi WSW 18.4 mph 27.6 mph N/A   Clear
8:35 PM 64.8 °F - 50.9 °F 61% 29.77 in 10.0 mi WSW 15.0 mph 21.9 mph N/A   Scattered Clouds
8:55 PM 63.5 °F - 50.4 °F 62% 29.79 in 10.0 mi West 17.3 mph 31.1 mph N/A   Scattered Clouds
9:15 PM 60.3 °F - 46.2 °F 60% 29.80 in 10.0 mi WSW 20.7 mph 31.1 mph N/A   Scattered Clouds
9:35 PM 58.3 °F - 45.5 °F 62% 29.81 in 10.0 mi West 18.4 mph 34.5 mph N/A   Clear
9:55 PM 56.7 °F - 44.8 °F 64% 29.82 in 10.0 mi West 23.0 mph 36.8 mph N/A   Clear
10:15 PM 55.6 °F - 44.8 °F 67% 29.85 in 10.0 mi WSW 15.0 mph 21.9 mph N/A   Clear
10:35 PM 54.5 °F - 42.8 °F 65% 29.86 in 10.0 mi West 15.0 mph 23.0 mph N/A   Scattered Clouds
10:55 PM 53.6 °F - 42.3 °F 65% 29.86 in 10.0 mi WSW 19.6 mph 25.3 mph N/A   Mostly Cloudy
11:15 PM 52.7 °F - 42.3 °F 68% 29.87 in 10.0 mi WSW 11.5 mph 23.0 mph N/A   Scattered Clouds
11:35 PM 51.6 °F - 41.4 °F 68% 29.87 in 10.0 mi WSW 13.8 mph 23.0 mph N/A   Mostly Cloudy
11:55 PM 50.5 °F - 40.8 °F 69% 29.88 in 10.0 mi WSW 11.5 mph 23.0 mph N/A   Mostly Cloudy